This demonstration page uses our WeatherBlox Daily Observations layout. Learn more.

Left ArrowRight Arrow

Hourly Observations for December 7, 2021

Temp ( °F °C ) Dew Point ( °F °C ) Humidity (%) Winds ( mph kmh ) Pressure ( in mb ) Visibility ( mi km ) Precip ( " mm )
12:56 am 00:56 Cloudy 27 -2.8 15 -9.4 61 61 S 20 31 30.06 1018 10 16 0.00 0.00
1:56 am 01:56 Mostly Cloudy 28 -2.2 16 -8.9 60 60 S 20 31 30.03 1017 10 16 0.00 0.00
2:56 am 02:56 Cloudy 28 -2.2 16 -8.9 60 60 S 24 39 29.99 1016 10 16 0.00 0.00
3:56 am 03:56 Mostly Cloudy 27 -2.8 16 -8.9 63 63 S 20 31 29.97 1015 10 16 0.00 0.00
4:56 am 04:56 Clear 26 -3.3 16 -8.9 66 66 SSW 14 22 29.99 1016 10 16 0.00 0.00
5:56 am 05:56 Clear 26 -3.3 16 -8.9 66 66 SSW 9 15 30.00 1016 10 16 0.00 0.00
6:56 am 06:56 Clear 24 -4.4 16 -8.9 71 71 SW 6 9 30.03 1017 10 16 0.00 0.00
7:56 am 07:56 Mostly Sunny 26 -3.3 17 -8.3 69 69 SW 8 13 30.03 1017 10 16 0.00 0.00
8:56 am 08:56 Sunny 26 -3.3 16 -8.9 66 66 WSW 6 9 30.03 1017 10 16 0.00 0.00
9:56 am 09:56 Sunny 30 -1.1 17 -8.3 58 58 SW 15 24 30.03 1017 10 16 0.00 0.00
10:56 am 10:56 Sunny 34 1.1 15 -9.4 46 46 W 9 15 30.02 1017 10 16 0.00 0.00
11:56 am 11:56 Sunny 38 3.3 15 -9.4 39 39 NW 13 20 30.00 1016 10 16 0.00 0.00
12:56 pm 12:56 Sunny 40 4.4 16 -8.9 38 38 NNW 10 17 29.96 1015 10 16 0.00 0.00
1:56 pm 13:56 Sunny 41 5 16 -8.9 36 36 N 10 17 29.92 1013 10 16 0.00 0.00
2:56 pm 14:56 Sunny 43 6.1 15 -9.4 32 32 NW 5 7 29.94 1014 10 16 0.00 0.00
3:56 pm 15:56 Sunny 42 5.6 15 -9.4 33 33 NNW 6 9 29.94 1014 10 16 0.00 0.00
4:56 pm 16:56 Sunny 37 2.8 15 -9.4 41 41 N 7 11 29.96 1015 10 16 0.00 0.00
5:56 pm 17:56 Clear 34 1.1 15 -9.4 46 46 N 7 11 29.98 1015 10 16 0.00 0.00
6:56 pm 18:56 Clear 29 -1.7 15 -9.4 56 56 Calm 29.99 1016 10 16 0.00 0.00
7:56 pm 19:56 Clear 27 -2.8 16 -8.9 63 63 S 9 15 29.98 1015 10 16 0.00 0.00
8:56 pm 20:56 Clear 29 -1.7 18 -7.8 63 63 SSW 7 11 29.98 1015 10 16 0.00 0.00
9:56 pm 21:56 Cloudy 29 -1.7 17 -8.3 61 61 SSW 6 9 29.98 1015 10 16 0.00 0.00
10:56 pm 22:56 Mostly Cloudy 29 -1.7 18 -7.8 63 63 S 7 11 29.97 1015 10 16 0.00 0.00
11:56 pm 23:56 Cloudy 32 0 19 -7.2 59 59 SSW 8 13 29.96 1015 10 16 0.00 0.00

Powered by AerisWeather